Regional Weather Roundup
Issued by NWS

Home | Current Version | Previous Version | Text Only | Print | Product List | Glossary Off
Versions: 1 2 3 4 5 6 7 8 9 10 11 12 13 14 15 16 17 18 19 20 21 22 23 24 25 26 27 28 29 30 31 32 33 34 35 36 37 38 39 40 41 42 43 44 45 46 47 48 49 50

000
ASUS43 KLOT 242003
RWRIL

ILLINOIS REGIONAL WEATHER ROUNDUP
NATIONAL WEATHER SERVICE CHICAGO/ROMEOVILLE IL
200 PM CST TUE JAN 24 2017

NOTE: "FAIR" INDICATES FEW OR NO CLOUDS BELOW 12,000 FEET WITH NO
SIGNIFICANT WEATHER AND/OR OBSTRUCTIONS TO VISIBILITY.

* THESE STATIONS ARE NOT UNDER NWS QUALITY CONTROL. THEY ALSO MAY NOT
  REPORT WEATHER SUCH AS PRECIPITATION OR FOG.

ILZ001-002-007-009-015-016-024-242100-
NORTHWEST ILLINOIS

CITY           SKY/WX    TMP DP  RH WIND       PRES   REMARKS
MOLINE         FLURRIES  37  31  78 SE8       29.81F WCI  31
STERLING*      CLOUDY    37  32  82 SE3       29.84F
SAVANNA*       CLOUDY    36  32  87 SE8       29.83S WCI  29
$$

ILZ003-004-008-010-011-017-018-242100-
NORTH CENTRAL ILLINOIS

CITY           SKY/WX    TMP DP  RH WIND       PRES   REMARKS
ROCKFORD       CLOUDY    36  30  79 CALM      29.84F
FREEPORT*      CLOUDY    35  31  87 CALM      29.85S
ROCHELLE*      CLOUDY    36  32  85 SE3       29.84S
DE KALB*       CLOUDY    35  32  89 CALM      29.83F
PERU*          CLOUDY    37  32  81 SE5       29.82F WCI  33
$$

ILZ005-006-012>014-019>023-242100-
NORTHEAST ILLINOIS

CITY           SKY/WX    TMP DP  RH WIND       PRES   REMARKS
CHICAGO-OHARE  CLOUDY    35  31  85 CALM      29.83F
CHICAGO-MIDWAY CLOUDY    38  30  73 N6        29.84F WCI  33
AURORA         CLOUDY    37  31  78 CALM      29.84F
LANSING*       CLOUDY    38  33  84 CALM      29.85F
JOLIET*        CLOUDY    39  33  78 CALM      29.85S
WAUKEGAN       CLOUDY    37  32  82 W3        29.83S
DUPAGE AIRPORT CLOUDY    36  30  79 NE5       29.83F WCI  32
KANKAKEE*      CLOUDY    39  32  77 CALM      29.87R
WHEELING       CLOUDY    36  31  82 CALM      29.85F
MORRIS*        CLOUDY    38  32  78 CALM      29.84S
ROMEOVILLE*    CLOUDY    37  33  88 CALM      29.84S
NORTHERLY ISL    N/A     36  31  82 W2          N/A
$$

LMZ740>746-242100-
SOUTHERN LAKE MICHIGAN

STATION/POSITION SKY/WX   TEMP    WIND        PRES    VSBY  WAVE
                          AIR SEA DIR/SP/G                  HT/PER
                          (F)     (DEG/KT/KT) (MB)    (MI)  (FT/S)
HARRISON CRIB              35     360/  6/  6   N/A
BURNHAM HARBOR             36     250/  4/  7   N/A
CALUMET HARBOR             34      40/  5/  6 1010.5F
BURNS HARBOR               34      20/  4/  4 1011.5F
$$

ILZ025>027-034>036-040-047-049-050-058-095>099-242100-
WEST-CENTRAL ILLINOIS

CITY           SKY/WX    TMP DP  RH WIND       PRES   REMARKS
QUINCY         PTSUNNY   40  33  76 E13       29.74F
GALESBURG*     CLOUDY    38  32  81 SE5       29.80F WCI  34
MACOMB*        CLOUDY    39  35  83 SE12      29.81F WCI  32
JACKSONVILLE*  MOSUNNY   43  34  71 E13       29.79F
PITTSFIELD*    PTSUNNY   43  35  72 E15       29.77F
$$

ILZ028>032-037-038-041>044-048-051>054-059>061-242100-
CENTRAL ILLINOIS

CITY           SKY/WX    TMP DP  RH WIND       PRES   REMARKS
PONTIAC        CLOUDY    40  35  82 E3        29.83F
BLOOMINGTON    CLOUDY    38  33  82 SE10      29.83F WCI  31
DECATUR        CLOUDY    40  35  83 SE9       29.82F
PEORIA         CLOUDY    39  33  79 SE6       29.82F WCI  35
LACON*         CLOUDY    38  33  81 SE7       29.83S WCI  33
LINCOLN*       CLOUDY    41  35  80 SE10      29.83F
SPRINGFIELD    MOSUNNY   45  34  65 SE9       29.81F
TAYLORVILLE    PTSUNNY   43  34  72 SE10      29.82F
$$

ILZ033-039-045-046-055>057-062-063-242100-
EAST-CENTRAL ILLINOIS

CITY           SKY/WX    TMP DP  RH WIND       PRES   REMARKS
CHAMPAIGN      CLOUDY    40  33  76 S6        29.86S
RANTOUL*       CLOUDY    42  36  79 S5        29.85S
MATTOON        CLOUDY    41  34  76 S6        29.84F
$$

ILZ079-100>102-242100-
SOUTHWEST ILLINOIS

CITY           SKY/WX    TMP DP  RH WIND       PRES   REMARKS
ALTON          PTSUNNY   45  36  70 SE9       29.79F
BELLEVILLE     CLOUDY    49  37  63 E14       29.78F
CAHOKIA*       MOSUNNY   49  35  58 SE15      29.77F
SPARTA*        MOSUNNY   48  35  60 SE10      29.81F
$$

ILZ064>066-069>071-074>076-080>082-084>086-088>090-092>094-242100-
SOUTH-CENTRAL ILLINOIS

CITY           SKY/WX    TMP DP  RH WIND       PRES   REMARKS
CARBONDALE     CLOUDY    50  36  58 S6        29.83F
CAIRO*         SUNNY     50  37  61 S3        29.84F
EFFINGHAM*     CLOUDY    44  36  75 E10       29.86F
MARION         PTSUNNY   55  36  47 SE5       29.85F
MT. VERNON     SUNNY     49  36  61 VRB6      29.85F
CENTRALIA*     SUNNY     50  38  62 S9        29.82F
SALEM*         SUNNY     50  35  56 SE6       29.83F
METROPOLIS*    SUNNY     53  36  52 CALM      29.86F
$$

ILZ067-068-072-073-078-083-087-091-242100-
SOUTHEAST ILLINOIS

CITY           SKY/WX    TMP DP  RH WIND       PRES   REMARKS
LAWRENCEVILLE  CLOUDY    42  35  76 S5        29.89S
FLORA*         PTSUNNY   48  37  65 SE6       29.85F
FAIRFIELD*     MOSUNNY   46  36  67 CALM      29.84F
HARRISBURG*    SUNNY     51  38  62 E3        29.86F
ROBINSON*      CLOUDY    41  34  76 SW7       29.89S
CARMI*         SUNNY     46  37  71 SE5       29.86F
$$

ABBREVIATIONS USED IN REMARKS
   TC - TEMPERATURE IN CELSIUS
  WCI - WIND CHILL INDEX
   HX - HEAT INDEX
  VSB - VISIBILITY
$$





USA.gov is the U.S. government's official web portal to all federal, state and local government web resources and services.